Location: Hilton Head Island
(32.2163°N, 80.7526°W)
Time: 08:06:20
(UTC-04:00)

Tiros 1 despin weight - Pass Details

Date: 19 February 2026
Orbit: 555 x 593 km, 48.2° (Epoch: 17 March)

Event Time Altitude Azimuth Distance (km) Brightness Sun altitude
Rises 15:14:39 0° 267° (W) 2,742 ? 32.6°
Reaches altitude 10° 15:17:21 10° 283° (WNW) 1,842 ? 32.2°
Maximum altitude 15:20:35 21° 334° (NNW) 1,271 ? 31.7°
Drops below altitude 10° 15:23:49 10° 24° (NNE) 1,836 ? 31.2°
Sets 15:26:30 0° 41° (NE) 2,731 ? 30.7°
